Showing default

CANX-5, 40056

Orbit data source: Space-Track

CANX-5, 40056 is a payload satellite owned by UTIAS-SFL (CA) in SSO that was launched on Mon, 30 Jun 2014 UTC via a PSLV launch vehicle from the Sirharikota (SRI). Payload-class satellites include a variety of spacecraft equipped with specific instruments for various scientific and technological missions. These include communications satellites like Starlink; space stations such as the ISS; scientific satellites like the Hubble; Earth observation satellites from companies like Planet Labs, Umbra, and HawkEye 360; GPS; miniature CubeSats for education and research; and military/defense satellites.

Loading next visibility...
Identifier
40056, 2014-034D
Orbit
SSO
Country
Flag of CACA
Related business
Manufacturer
UTIAS-SFL
Mission
Operational Amateur Technology
Bus & Motor
GNB, Unknown motor
Mass
7 kg wet, 7 kg dry
Launch date (UTC)
2014-06-30 (12 years ago)
Launch vehicle
PSLV
Launch site
Sirharikota (SRI)
Object type
Payload
Rocket body
Debris
Shape & HBR
Box + 4 Ant, 0.1 m
Radar Cross Section
0.060 m², Medium (>0.1 m² and < 1m²)

Expand to show TLE details & history
Last TLE update: 7 hours ago

TLE from 7 hours ago
0 CANX-5
1 40056U 14034D   26071.61559182  .00001366  00000-0  18316-3 0  9998
2 40056  98.3275 303.3533 0012118 326.9380  33.1073 14.81087092621045
Epoch: 2026-03-12T14:46Z
TLE epoch observation values (Epoch: 2026-03-12T14:46:27.133Z)
Latitude
0.00004°
Longitude
-88.52269°
Altitude
621.797 km
Speed
7.552 km/s
True Right ascension
20h 13m 24s
True Declination
0° 00' 00"
Sunlit
Object was in daylight at epoch
Visualization orbit readout
Latitude
Unknown
Longitude
Unknown
Altitude
Unknown
Speed
Unknown
Apparent Right ascension
Unknown
Apparent Declination
Unknown
Sunlit
N/A
Visualization observer readout
Local Sidereal Time
02:28:36
Azimuth
Unknown
Elevation
Unknown
Doppler factor
Unknown
Orbital elements
Apogee altitude
631.438 km
Perigee altitude
614.47 km
Semi-major axis
7,001.091 km
Eccentricity
0.00121
Inclination
98.3275°
RAAN
303.3533°
Arg. of periapsis
326.938°
True anomaly
33.18324°
Mean anomaly
33.1073°
Eccentric anomaly
33.14526°
Mean motion
3.70505 °/min
Orbital period
97.16 mins
BSTAR
0.00018316
Loading maneuver chart data...
Computing Atmospheric mass density...
Loading historical data...
Loading historical data...
Loading historical data...
Loading historical data...
Loading historical data...
Loading historical data...
Loading historical data...
Other satellites on launch #34 in the year 2014 (2014-06-30 UTC)

Documentation

Showing up to 5 results
|